Weather History for PAGS - January, 2014

Change the Weather History Date:

Monday, January 13, 2014

  Actual Average Record
Temperature  
Mean Temperature 38 °F -  
Max Temperature 41 °F 29 °F 49 °F (1986)
Min Temperature 35 °F 23 °F -14 °F (1950)
Degree Days  
Heating Degree Days 27    
Moisture  
Dew Point 33 °F    
Average Humidity 83    
Maximum Humidity 93    
Minimum Humidity 70    
Precipitation  
Precipitation 0.00 in - - ()
Sea Level Pressure  
Sea Level Pressure 29.75 in    
Wind  
Wind Speed 10 mph (SSE)    
Max Wind Speed 30 mph    
Max Gust Speed 39 mph    
Visibility 10 miles    
Events      
Averages and records for this station are not official NWS values.
T = Trace of Precipitation, MM = Missing Value Source: NWS Daily Summary

Daily Weather History Graph

Daily Weather History Graph

Search for Another Location

Airport or City:

Trip Planner

Search our weather history database for the weather conditions in past years. The results will help you decide how hot, cold, wet, or windy it might be!

Date:

Astronomy

Jan. 13, 2014 Rise Set
Actual Time 8:41 AM AKST 3:42 PM AKST
Civil Twilight 7:51 AM AKST 4:32 PM AKST
Nautical Twilight 7:00 AM AKST 5:23 PM AKST
Astronomical Twilight 6:12 AM AKST 6:11 PM AKST
Moon 2:08 PM AKST (1/13) 6:31 AM AKST (1/13)
Length of Visible Light 8h 40m
Length of Day
7h 01m
Waxing Gibbous, 95% of the Moon is Illuminated
Jan 13
Waxing Gibbous
Jan 15
Full
Jan 23
Last Quarter
Jan 30
New
Feb 6
First Quarter

Hourly Weather History & Observations

Time (AKST) Temp. Windchill Dew Point Humidity Pressure Visibility Wind Dir Wind Speed Gust Speed Precip Events Conditions
12:16 AM 37.4 °F 33.8 °F 33.8 °F 87% 29.45 in 10.0 mi South 4.6 mph - N/A   Mostly Cloudy
12:36 AM 35.6 °F - 32.0 °F 87% 29.47 in 10.0 mi Calm Calm - N/A   Partly Cloudy
12:56 AM 35.6 °F 31.7 °F 33.8 °F 93% 29.49 in 10.0 mi ENE 4.6 mph - N/A   Scattered Clouds
1:16 AM 35.6 °F - 33.8 °F 93% 29.50 in 10.0 mi Calm Calm - N/A   Mostly Cloudy
1:36 AM 37.4 °F 28.9 °F 35.6 °F 93% 29.52 in 10.0 mi SW 13.8 mph 21.9 mph N/A   Overcast
1:56 AM 39.2 °F 33.6 °F 33.8 °F 81% 29.54 in 10.0 mi WSW 8.1 mph - N/A   Overcast
2:16 AM 37.4 °F 29.3 °F 33.8 °F 87% 29.55 in 10.0 mi SW 12.7 mph 19.6 mph N/A   Overcast
2:36 AM 37.4 °F 32.1 °F 33.8 °F 87% 29.57 in 10.0 mi SW 6.9 mph 16.1 mph N/A   Scattered Clouds
2:56 AM 37.4 °F 32.8 °F 33.8 °F 87% 29.58 in 10.0 mi SW 5.8 mph - N/A   Mostly Cloudy
3:16 AM 39.2 °F 33.0 °F 33.8 °F 81% 29.59 in 10.0 mi SW 9.2 mph - N/A   Mostly Cloudy
3:36 AM 39.2 °F 32.5 °F 33.8 °F 81% 29.61 in 10.0 mi SW 10.4 mph - N/A   Overcast
3:56 AM 39.2 °F 30.2 °F 33.8 °F 81% 29.63 in 10.0 mi WSW 17.3 mph 26.5 mph N/A   Overcast
4:16 AM 39.2 °F 31.2 °F 33.8 °F 81% 29.63 in 10.0 mi SW 13.8 mph 24.2 mph N/A   Mostly Cloudy
4:36 AM 39.2 °F 32.0 °F 32.0 °F 75% 29.65 in 10.0 mi SW 11.5 mph 20.7 mph N/A   Scattered Clouds
4:56 AM 39.2 °F 32.5 °F 32.0 °F 75% 29.66 in 10.0 mi SW 10.4 mph 19.6 mph N/A   Partly Cloudy
5:16 AM 39.2 °F 30.5 °F 30.2 °F 70% 29.67 in 10.0 mi WSW 16.1 mph 20.7 mph N/A   Clear
5:36 AM 39.2 °F 30.5 °F 30.2 °F 70% 29.68 in 10.0 mi SW 16.1 mph 25.3 mph N/A   Clear
5:56 AM 41.0 °F 33.9 °F 32.0 °F 70% 29.70 in 10.0 mi SW 12.7 mph 20.7 mph N/A   Partly Cloudy
6:16 AM 39.2 °F 32.5 °F 30.2 °F 70% 29.72 in 10.0 mi SSW 10.4 mph 16.1 mph N/A   Scattered Clouds
6:36 AM 39.2 °F 33.6 °F 33.8 °F 81% 29.73 in 10.0 mi SSW 8.1 mph - N/A   Mostly Cloudy
6:56 AM 39.2 °F 34.2 °F 33.8 °F 81% 29.74 in 10.0 mi SW 6.9 mph - N/A   Overcast
7:16 AM 39.2 °F 32.5 °F 32.0 °F 75% 29.76 in 10.0 mi SSW 10.4 mph - N/A   Mostly Cloudy
7:36 AM 39.2 °F 35.9 °F 30.2 °F 70% 29.78 in 10.0 mi South 4.6 mph - N/A   Mostly Cloudy
7:56 AM 39.2 °F 35.0 °F 33.8 °F 81% 29.80 in 10.0 mi SSW 5.8 mph - N/A   Mostly Cloudy
8:16 AM 39.2 °F 30.8 °F 32.0 °F 75% 29.82 in 10.0 mi SW 15.0 mph 23.0 mph N/A   Overcast
8:36 AM 37.4 °F 33.8 °F 33.8 °F 87% 29.84 in 10.0 mi South 4.6 mph - N/A   Mostly Cloudy
8:56 AM 37.4 °F 31.4 °F 33.8 °F 87% 29.85 in 10.0 mi SSE 8.1 mph - N/A   Mostly Cloudy
9:16 AM 39.2 °F 33.6 °F 33.8 °F 81% 29.87 in 10.0 mi South 8.1 mph - N/A   Overcast
9:36 AM 39.2 °F 34.2 °F 33.8 °F 81% 29.89 in 10.0 mi SSE 6.9 mph - N/A   Overcast
9:56 AM 39.2 °F 30.5 °F 33.8 °F 81% 29.89 in 10.0 mi ESE 16.1 mph 24.2 mph N/A   Overcast
10:16 AM 39.2 °F 32.0 °F 32.0 °F 75% 29.91 in 10.0 mi SE 11.5 mph 16.1 mph N/A   Overcast
10:36 AM 37.4 °F 30.3 °F 33.8 °F 87% 29.92 in 10.0 mi ESE 10.4 mph - N/A   Overcast
10:56 AM 39.2 °F 35.0 °F 33.8 °F 81% 29.93 in 10.0 mi ESE 5.8 mph - N/A   Overcast
11:16 AM 39.2 °F 37.0 °F 33.8 °F 81% 29.94 in 10.0 mi ESE 3.5 mph - N/A   Overcast
11:36 AM 39.2 °F 37.0 °F 33.8 °F 81% 29.94 in 10.0 mi East 3.5 mph - N/A   Mostly Cloudy
11:56 AM 37.4 °F 32.8 °F 33.8 °F 87% 29.94 in 10.0 mi SE 5.8 mph - N/A   Overcast
12:16 PM 39.2 °F 33.0 °F 33.8 °F 81% 29.95 in 10.0 mi ESE 9.2 mph - N/A   Overcast
12:36 PM 39.2 °F 33.0 °F 33.8 °F 81% 29.95 in 10.0 mi ESE 9.2 mph - N/A   Overcast
12:56 PM 39.2 °F 33.6 °F 33.8 °F 81% 29.95 in 10.0 mi SE 8.1 mph - N/A   Mostly Cloudy
1:16 PM 39.2 °F 33.6 °F 33.8 °F 81% 29.95 in 10.0 mi ESE 8.1 mph - N/A   Mostly Cloudy
1:36 PM 39.2 °F 33.0 °F 33.8 °F 81% 29.96 in 10.0 mi ESE 9.2 mph - N/A   Scattered Clouds
1:56 PM 39.2 °F 35.0 °F 33.8 °F 81% 29.95 in 10.0 mi ESE 5.8 mph - N/A   Mostly Cloudy
2:16 PM 39.2 °F 33.6 °F 33.8 °F 81% 29.95 in 10.0 mi ESE 8.1 mph - N/A   Mostly Cloudy
2:36 PM 39.2 °F 34.2 °F 33.8 °F 81% 29.94 in 10.0 mi East 6.9 mph - N/A   Mostly Cloudy
2:56 PM 39.2 °F 34.2 °F 33.8 °F 81% 29.94 in 10.0 mi ESE 6.9 mph - N/A   Overcast
3:16 PM 39.2 °F 31.2 °F 33.8 °F 81% 29.93 in 10.0 mi SE 13.8 mph - N/A   Overcast
3:36 PM 39.2 °F 32.0 °F 33.8 °F 81% 29.92 in 10.0 mi SE 11.5 mph - N/A   Overcast
3:56 PM 39.2 °F 31.2 °F 33.8 °F 81% 29.91 in 10.0 mi SE 13.8 mph 18.4 mph N/A   Overcast
4:16 PM 39.2 °F 31.2 °F 33.8 °F 81% 29.91 in 10.0 mi SE 13.8 mph - N/A   Overcast
4:36 PM 39.2 °F 32.5 °F 33.8 °F 81% 29.89 in 10.0 mi SSE 10.4 mph 17.3 mph N/A   Overcast
4:56 PM 39.2 °F 31.6 °F 33.8 °F 81% 29.88 in 10.0 mi SE 12.7 mph 17.3 mph N/A   Overcast
5:16 PM 39.2 °F 30.5 °F 33.8 °F 81% 29.86 in 10.0 mi SE 16.1 mph 21.9 mph N/A   Overcast
5:36 PM 37.4 °F 27.8 °F 33.8 °F 87% 29.86 in 10.0 mi SE 17.3 mph - N/A   Overcast
5:56 PM 37.4 °F 27.8 °F 33.8 °F 87% 29.84 in 10.0 mi ESE 17.3 mph - N/A   Overcast
6:16 PM 37.4 °F 28.5 °F 35.6 °F 93% 29.81 in 10.0 mi SE 15.0 mph 20.7 mph N/A   Overcast
6:36 PM 37.4 °F 29.8 °F 33.8 °F 87% 29.80 in 10.0 mi ESE 11.5 mph 24.2 mph N/A   Overcast
6:56 PM 37.4 °F 30.8 °F 33.8 °F 87% 29.77 in 10.0 mi ESE 9.2 mph - N/A   Overcast
7:16 PM 37.4 °F 30.3 °F 33.8 °F 87% 29.75 in 10.0 mi ESE 10.4 mph 20.7 mph N/A   Overcast
7:36 PM 39.2 °F 32.5 °F 33.8 °F 81% 29.73 in 10.0 mi SE 10.4 mph 17.3 mph N/A   Overcast
7:56 PM 39.2 °F 27.8 °F 33.8 °F 81% 29.70 in 9.0 mi SE 27.6 mph 34.5 mph N/A   Overcast
8:16 PM 37.4 °F 26.9 °F 33.8 °F 87% 29.69 in 10.0 mi SE 20.7 mph 32.2 mph N/A   Overcast
8:36 PM 37.4 °F 26.1 °F 33.8 °F 87% 29.67 in 10.0 mi SE 24.2 mph 29.9 mph N/A   Overcast
8:56 PM 37.4 °F 26.9 °F 33.8 °F 87% 29.66 in 10.0 mi SE 20.7 mph 29.9 mph N/A   Overcast
9:16 PM 37.4 °F 27.5 °F 33.8 °F 87% 29.65 in 10.0 mi SE 18.4 mph 31.1 mph N/A   Overcast
9:36 PM 37.4 °F 25.0 °F 33.8 °F 87% 29.64 in 9.0 mi SE 29.9 mph 35.7 mph N/A   Overcast
9:56 PM 37.4 °F 26.1 °F 33.8 °F 87% 29.62 in 6.0 mi SE 24.2 mph 39.1 mph N/A   Overcast
10:16 PM 37.4 °F 25.0 °F 33.8 °F 87% 29.60 in 3.0 mi SE 29.9 mph 36.8 mph N/A   Overcast
10:36 PM 37.4 °F 26.4 °F 33.8 °F 87% 29.59 in 5.0 mi SE 23.0 mph 35.7 mph N/A   Overcast
10:56 PM 35.6 °F 23.2 °F 33.8 °F 93% 29.58 in 2.0 mi SE 26.5 mph 33.4 mph N/A   Overcast
11:16 PM 37.4 °F 26.6 °F 33.8 °F 87% 29.58 in 4.0 mi SSE 21.9 mph 28.8 mph N/A   Overcast
11:36 PM 37.4 °F 27.2 °F 33.8 °F 87% 29.58 in 5.0 mi SSE 19.6 mph 26.5 mph N/A   Overcast
11:56 PM 37.4 °F 26.4 °F 35.6 °F 93% 29.56 in 9.0 mi SE 23.0 mph 31.1 mph N/A   Overcast